Regional Weather Roundup
Issued by NWS

Home | Current Version | Previous Version | Text Only | Print | Product List | Glossary Off
Versions: 1 2 3 4 5 6 7 8 9 10 11 12 13 14 15 16 17 18 19 20 21 22 23 24 25 26 27 28 29 30 31 32 33 34 35 36 37 38 39 40 41 42 43 44 45 46 47 48 49 50

962
ASUS44 KLIX 301111
RWRLA
LOUISIANA WEATHER ROUNDUP
NATIONAL WEATHER SERVICE NEW ORLEANS LA
600 AM CDT MON MAR 30 2015

NOTE: "FAIR" INDICATES FEW OR NO CLOUDS BELOW 12,000 FEET WITH NO
      SIGNIFICANT WEATHER AND/OR OBSTRUCTIONS TO VISIBILITY.
      SKY/WX - SKY CONDITION AND SIGNIFICANT WEATHER.
      TMP - AIR TEMPERATURE.    DP   - DEWPOINT TEMPERATURE.
      RH  - RELATIVE HUMIDITY.  PRES - PRESSURE.
      HX  - HEAT INDEX.         WCI  - WIND CHILL INDEX.

*  THESE STATIONS ARE NOT NWS OR FAA STATIONS AND ARE NOT UNDER
   NWS QUALITY CONTROL.

LAZ040-048-061>063-065-066-069-301200-
SOUTHEAST LOUISIANA

CITY           SKY/WX    TMP DP  RH WIND       PRES   REMARKS
N.O. AUDUBON     N/A     61  61 100 MISG        N/A
N.O. INTL ARPT PTCLDY    61  58  90 CALM      30.19R
N.O. LAKEFRONT PTCLDY    67  62  84 CALM      30.20R
SLIDELL        CLOUDY    57  57 100 CALM      30.19R
BATON ROUGE    PTCLDY    59  57  93 CALM      30.19R
BOOTHVILLE     CLEAR     63  61  93 CALM      30.20R
BELLE CHASSE   CLOUDY    56  55  97 CALM      30.19R FOG
BOGALUSA*      FOG       58  55  92 CALM      30.21R VSB 1/4
GALLIANO*      CLOUDY    55  55  98 CALM      30.20R
NEW ROADS*     FAIR      58  58  98 CALM      30.19S FOG
GONZALES*      CLOUDY    57  57 100 CALM      30.20R FOG
HAMMOND*       MOCLDY    57  55  94 CALM      30.21S
HOUMA*         CLEAR     58  58  99 CALM      30.19R FOG
PORT FOURCHON* MOSUNNY   70  66  88 SW5       30.22R

$$

LAZ041-044-053-054-301200-
SOUTHWEST LOUISIANA

CITY           SKY/WX    TMP DP  RH WIND       PRES   REMARKS
LAKE CHARLES   PTCLDY    59  58  96 NE3       30.18R
LAFAYETTE      MOCLDY    61  60  97 N3        30.19R
PATTERSON      MOCLDY    59  57  94 CALM      30.20R
SALT POINT       N/A     64  63  96 CALM      30.17R
NEW IBERIA     PTCLDY    60  58  92 N3        30.19R
CHENAULT AIRPK NOT AVBL

$$

LAZ027-028-301200-
CENTRAL LOUISIANA

CITY           SKY/WX    TMP DP  RH WIND       PRES   REMARKS
FORT POLK      PTCLDY    58  57  97 S5        30.17R
ALEXANDRIA INT FOG       57  56  96 CALM      30.17R VSB 3/4
ALEXANDRIA     MOCLDY    54  54 100 CALM      30.19R

$$

LAZ001-002-301200-
NORTHWEST LOUISIANA

CITY           SKY/WX    TMP DP  RH WIND       PRES   REMARKS
SHREVEPORT     CLOUDY    62  59  90 CALM      30.16R
BARKSDALE AFB  CLOUDY    61  60  96 S5        30.15S
DTN SHREVEPORT CLOUDY    63  59  87 SW5       30.16R

$$

LAZ014-016-301200-
NORTHEAST LOUISIANA

CITY           SKY/WX    TMP DP  RH WIND       PRES   REMARKS
MONROE         MOCLDY    63  60  90 SW6       30.17R
TALLULAH       PTCLDY    63  59  87 SW3       30.18R

$$




USA.gov is the U.S. government's official web portal to all federal, state and local government web resources and services.